• In Deutschland
  • Länderverzeichnis
  • Für 7 Tage
  • Wassertemperatur
  • Satellitenkarten
  • Wetterkarte
  • Widgets
  • user-avatar
    Anmelden

    Stündliche Wetter Durres

    Heute, 22 Juli, Samstag

    Zeit Temperatur Niederschläge Wind Luftdruck Luftfeuchtigkeit
    00:00 +27°C° 0 mm 1 m/S 759 mmHg 50%
    01:00 +27°C° 0 mm 1 m/S 759 mmHg 48%
    02:00 +27°C° 0 mm 1 m/S 759 mmHg 48%
    03:00 +27°C° 0 mm 1 m/S 759 mmHg 49%
    04:00 +26°C° 0 mm 1 m/S 759 mmHg 49%
    05:00 +28°C° 0 mm 1 m/S 759 mmHg 45%
    06:00 +30°C° 0 mm 1 m/S 760 mmHg 42%
    07:00 +32°C° 0 mm 2 m/S 760 mmHg 38%
    08:00 +35°C° 0 mm 2 m/S 760 mmHg 34%
    09:00 +37°C° 0 mm 2 m/S 760 mmHg 30%
    10:00 +38°C° 0 mm 2 m/S 760 mmHg 26%
    11:00 +39°C° 0 mm 3 m/S 760 mmHg 25%
    12:00 +40°C° 0 mm 3 m/S 760 mmHg 24%
    13:00 +42°C° 0 mm 4 m/S 760 mmHg 23%
    14:00 +41°C° 0 mm 4 m/S 760 mmHg 24%
    15:00 +39°C° 0 mm 3 m/S 759 mmHg 26%
    16:00 +39°C° 0 mm 3 m/S 759 mmHg 27%
    17:00 +36°C° 0 mm 3 m/S 759 mmHg 33%
    18:00 +32°C° 0 mm 2 m/S 759 mmHg 39%
    19:00 +30°C° 0 mm 2 m/S 759 mmHg 45%
    20:00 +29°C° 0 mm 2 m/S 760 mmHg 45%
    21:00 +29°C° 0 mm 2 m/S 760 mmHg 46%
    22:00 +28°C° 0 mm 3 m/S 760 mmHg 46%
    23:00 +28°C° 0 mm 2 m/S 760 mmHg 45%

    Morgen, 23 Juli, Sonntag

    Zeit Temperatur Niederschläge Wind Luftdruck Luftfeuchtigkeit
    00:00 +27°C° 0 mm 2 m/S 760 mmHg 45%
    01:00 +27°C° 0 mm 2 m/S 760 mmHg 44%
    02:00 +27°C° 0 mm 3 m/S 760 mmHg 43%
    03:00 +27°C° 0 mm 3 m/S 759 mmHg 42%
    04:00 +26°C° 0 mm 3 m/S 759 mmHg 41%
    05:00 +29°C° 0 mm 2 m/S 759 mmHg 38%
    06:00 +31°C° 0 mm 2 m/S 759 mmHg 35%
    07:00 +33°C° 0 mm 1 m/S 759 mmHg 32%
    08:00 +35°C° 0 mm 2 m/S 759 mmHg 29%
    09:00 +37°C° 0 mm 2 m/S 759 mmHg 26%
    10:00 +38°C° 0 mm 3 m/S 759 mmHg 24%
    11:00 +39°C° 0 mm 3 m/S 759 mmHg 24%
    12:00 +39°C° 0 mm 3 m/S 759 mmHg 23%
    13:00 +40°C° 0 mm 3 m/S 758 mmHg 23%
    14:00 +39°C° 0 mm 3 m/S 758 mmHg 25%
    15:00 +39°C° 0 mm 3 m/S 758 mmHg 27%
    16:00 +38°C° 0 mm 3 m/S 757 mmHg 29%
    17:00 +36°C° 0 mm 2 m/S 757 mmHg 37%
    18:00 +32°C° 0 mm 2 m/S 758 mmHg 44%
    19:00 +30°C° 0 mm 2 m/S 758 mmHg 52%
    20:00 +29°C° 0 mm 2 m/S 758 mmHg 54%
    21:00 +28°C° 0 mm 2 m/S 758 mmHg 56%
    22:00 +27°C° 0 mm 2 m/S 758 mmHg 59%
    23:00 +27°C° 0 mm 1 m/S 758 mmHg 58%

    übermorgen, 24 Juli, Montag

    Zeit Temperatur Niederschläge Wind Luftdruck Luftfeuchtigkeit
    00:00 +26°C° 0 mm 1 m/S 758 mmHg 57%
    01:00 +26°C° 0 mm 1 m/S 758 mmHg 57%
    02:00 +26°C° 0 mm 1 m/S 757 mmHg 56%
    03:00 +26°C° 0 mm 1 m/S 757 mmHg 55%
    04:00 +25°C° 0 mm 1 m/S 757 mmHg 55%
    05:00 +27°C° 0 mm 1 m/S 757 mmHg 50%
    06:00 +29°C° 0 mm 1 m/S 757 mmHg 44%
    07:00 +32°C° 0 mm 1 m/S 756 mmHg 39%
    08:00 +33°C° 0 mm 1 m/S 756 mmHg 35%
    09:00 +35°C° 0 mm 1 m/S 756 mmHg 30%
    10:00 +38°C° 0 mm 2 m/S 756 mmHg 26%
    11:00 +39°C° 0 mm 2 m/S 755 mmHg 24%
    12:00 +39°C° 0 mm 2 m/S 755 mmHg 22%
    13:00 +40°C° 0 mm 3 m/S 754 mmHg 20%
    14:00 +40°C° 0 mm 3 m/S 754 mmHg 21%
    15:00 +39°C° 0 mm 3 m/S 753 mmHg 22%
    16:00 +39°C° 0 mm 3 m/S 753 mmHg 23%
    17:00 +36°C° 0 mm 3 m/S 753 mmHg 30%
    18:00 +34°C° 0 mm 3 m/S 753 mmHg 37%
    19:00 +30°C° 0 mm 2 m/S 753 mmHg 44%
    20:00 +29°C° 0 mm 3 m/S 752 mmHg 44%
    21:00 +28°C° 0 mm 4 m/S 752 mmHg 44%
    22:00 +28°C° 0 mm 5 m/S 752 mmHg 45%
    23:00 +28°C° 0 mm 6 m/S 752 mmHg 44%

    25 Juli, Dienstag

    Zeit Temperatur Niederschläge Wind Luftdruck Luftfeuchtigkeit
    00:00 +27°C° 0 mm 6 m/S 752 mmHg 44%
    01:00 +27°C° 0 mm 7 m/S 751 mmHg 44%
    02:00 +26°C° 0 mm 7 m/S 751 mmHg 46%
    03:00 +26°C° 0 mm 6 m/S 751 mmHg 47%
    04:00 +24°C° 0 mm 6 m/S 751 mmHg 49%
    05:00 +27°C° 0 mm 6 m/S 751 mmHg 49%
    06:00 +28°C° 0 mm 6 m/S 751 mmHg 49%
    07:00 +30°C° 0 mm 6 m/S 751 mmHg 50%
    08:00 +32°C° 0,1 mm 6 m/S 751 mmHg 47%
    09:00 +33°C° 0,1 mm 6 m/S 751 mmHg 43%
    10:00 +34°C° 0,1 mm 6 m/S 751 mmHg 40%
    11:00 +34°C° 0 mm 5 m/S 751 mmHg 40%
    12:00 +34°C° 0 mm 4 m/S 751 mmHg 39%
    13:00 +34°C° 0 mm 4 m/S 751 mmHg 38%
    14:00 +34°C° 0 mm 3 m/S 751 mmHg 38%
    15:00 +33°C° 0 mm 3 m/S 751 mmHg 38%
    16:00 +33°C° 0 mm 3 m/S 751 mmHg 38%
    17:00 +30°C° 0 mm 2 m/S 752 mmHg 44%
    18:00 +28°C° 0 mm 2 m/S 752 mmHg 50%
    19:00 +27°C° 0 mm 2 m/S 752 mmHg 56%
    20:00 +26°C° 0 mm 2 m/S 752 mmHg 59%
    21:00 +25°C° 0 mm 2 m/S 753 mmHg 62%
    22:00 +24°C° 0 mm 2 m/S 753 mmHg 65%
    23:00 +24°C° 0 mm 2 m/S 753 mmHg 65%

    26 Juli, Mittwoch

    Zeit Temperatur Niederschläge Wind Luftdruck Luftfeuchtigkeit
    00:00 +23°C° 0 mm 2 m/S 753 mmHg 65%
    01:00 +23°C° 0 mm 2 m/S 753 mmHg 65%
    02:00 +23°C° 0 mm 2 m/S 753 mmHg 65%
    03:00 +23°C° 0 mm 2 m/S 753 mmHg 65%
    04:00 +21°C° 0 mm 2 m/S 753 mmHg 66%
    05:00 +24°C° 0 mm 2 m/S 753 mmHg 60%
    06:00 +26°C° 0 mm 2 m/S 753 mmHg 54%
    07:00 +28°C° 0 mm 2 m/S 753 mmHg 48%
    08:00 +30°C° 0 mm 2 m/S 753 mmHg 43%
    09:00 +33°C° 0 mm 3 m/S 753 mmHg 39%
    10:00 +34°C° 0 mm 3 m/S 753 mmHg 34%
    11:00 +35°C° 0 mm 3 m/S 753 mmHg 34%
    12:00 +35°C° 0 mm 4 m/S 752 mmHg 33%
    13:00 +35°C° 0 mm 5 m/S 752 mmHg 33%
    14:00 +35°C° 0 mm 5 m/S 752 mmHg 35%
    15:00 +34°C° 0 mm 4 m/S 752 mmHg 38%
    16:00 +34°C° 0 mm 4 m/S 752 mmHg 40%
    17:00 +32°C° 0,1 mm 4 m/S 752 mmHg 47%
    18:00 +29°C° 0,1 mm 4 m/S 752 mmHg 53%
    19:00 +27°C° 0,1 mm 4 m/S 752 mmHg 60%
    20:00 +26°C° 0,1 mm 4 m/S 752 mmHg 63%
    21:00 +25°C° 0,1 mm 4 m/S 753 mmHg 66%
    22:00 +23°C° 0,1 mm 5 m/S 753 mmHg 68%
    23:00 +23°C° 0,4 mm 5 m/S 753 mmHg 68%

    27 Juli, Donnerstag

    Zeit Temperatur Niederschläge Wind Luftdruck Luftfeuchtigkeit
    00:00 +22°C° 0,4 mm 5 m/S 753 mmHg 68%
    01:00 +22°C° 0,4 mm 5 m/S 753 mmHg 67%
    02:00 +22°C° 0,5 mm 5 m/S 753 mmHg 68%
    03:00 +21°C° 0,5 mm 5 m/S 753 mmHg 68%
    04:00 +21°C° 0,5 mm 4 m/S 753 mmHg 69%
    05:00 +23°C° 0,8 mm 4 m/S 753 mmHg 66%
    06:00 +25°C° 0,8 mm 4 m/S 753 mmHg 63%
    07:00 +26°C° 0,8 mm 4 m/S 753 mmHg 61%
    08:00 +27°C° 0,3 mm 4 m/S 754 mmHg 57%
    09:00 +28°C° 0,3 mm 4 m/S 754 mmHg 53%
    10:00 +29°C° 0,3 mm 4 m/S 754 mmHg 49%
    11:00 +30°C° 0,3 mm 4 m/S 754 mmHg 48%
    12:00 +30°C° 0,3 mm 4 m/S 754 mmHg 47%
    13:00 +32°C° 0,3 mm 4 m/S 754 mmHg 46%
    14:00 +30°C° 0,1 mm 4 m/S 754 mmHg 47%
    15:00 +30°C° 0,1 mm 3 m/S 754 mmHg 48%
    16:00 +30°C° 0,1 mm 3 m/S 754 mmHg 49%
    17:00 +28°C° 0 mm 3 m/S 754 mmHg 54%
    18:00 +26°C° 0 mm 3 m/S 755 mmHg 60%
    19:00 +25°C° 0 mm 3 m/S 755 mmHg 66%
    20:00 +24°C° 0 mm 3 m/S 755 mmHg 72%
    21:00 +23°C° 0 mm 2 m/S 756 mmHg 78%
    22:00 +21°C° 0 mm 2 m/S 756 mmHg 84%
    23:00 +20°C° 0 mm 2 m/S 756 mmHg 84%
    Mehr zeigen